This is the latest recevied weather packets stored in our database for station/object DL7KAW-10. If no packets are shown the sender has not sent any weather packets the latest 10 day(s).
| Time | Temp. | Humidity | Pressure | Rain* | Wind** | Luminosity | Snow |
|---|---|---|---|---|---|---|---|
| 1788025572 | 22.22° C | 66% | 1011.9 hPa | - | - | - | - |
| 1788024672 | 22.22° C | 64% | 1011.9 hPa | - | - | - | - |
| 1788023772 | 22.22° C | 66% | 1011.8 hPa | - | - | - | - |
| 1788022872 | 22.22° C | 65% | 1011.9 hPa | - | - | - | - |
| 1788021972 | 22.22° C | 65% | 1011.7 hPa | - | - | - | - |
| 1788021071 | 22.22° C | 65% | 1011.7 hPa | - | - | - | - |
| 1788020171 | 22.22° C | 64% | 1011.8 hPa | - | - | - | - |
| 1788019271 | 22.22° C | 65% | 1011.8 hPa | - | - | - | - |
| 1788018371 | 22.22° C | 62% | 1011.7 hPa | - | - | - | - |
| 1788017470 | 22.22° C | 66% | 1011.8 hPa | - | - | - | - |
| 1788016570 | 22.22° C | 64% | 1011.8 hPa | - | - | - | - |
| 1788015671 | 22.78° C | 65% | 1011.4 hPa | - | - | - | - |
| 1788014770 | 22.78° C | 66% | 1011.4 hPa | - | - | - | - |
| 1788013870 | 22.78° C | 63% | 1011.3 hPa | - | - | - | - |
| 1788012971 | 22.78° C | 64% | 1011.2 hPa | - | - | - | - |
| 1788012071 | 22.78° C | 64% | 1011.3 hPa | - | - | - | - |
| 1788011169 | 22.22° C | 64% | 1011.1 hPa | - | - | - | - |
| 1788010269 | 22.78° C | 64% | 1011.3 hPa | - | - | - | - |
| 1788009369 | 22.78° C | 64% | 1011.3 hPa | - | - | - | - |
| 1788008469 | 22.22° C | 64% | 1011.3 hPa | - | - | - | - |
| 1788007569 | 22.22° C | 65% | 1011.4 hPa | - | - | - | - |
| 1788006669 | 22.22° C | 65% | 1011.4 hPa | - | - | - | - |
| 1788005769 | 22.22° C | 64% | 1011.4 hPa | - | - | - | - |
| 1788004877 | 22.22° C | 64% | 1011.5 hPa | - | - | - | - |
| 1788003968 | 22.22° C | 64% | 1011.6 hPa | - | - | - | - |
* Rain since midnight (hover to see other rain measurements)
** Current wind speed in m/s (hover to see current wind gust speed)